Regional Weather Roundup
Issued by NWS Green Bay, WI

Home | Current Version | Previous Version | Text Only | Print | Product List | Glossary On
Versions: 1 2 3 4 5 6 7 8 9 10 11 12 13 14 15 16 17 18 19 20 21 22 23 24 25 26 27 28 29 30 31 32 33 34 35 36 37 38 39 40 41 42 43 44 45 46 47 48 49 50
000
ASUS43 KGRB 221710
RWRGRB

NORTH-CENTRAL AND NORTHEAST WISCONSIN REGIONAL WEATHER ROUNDUP
NATIONAL WEATHER SERVICE GREEN BAY WI
1200 PM CDT MON SEP 22 2014

WIZ005-009-010>012-018-019-221800-
NORTH CENTRAL WISCONSIN

CITY           SKY/WX    TMP DP  RH WIND       PRES   REMARKS
IRONWOOD       MOSUNNY   61  48  63 W9        30.17S
MANITOWISH WTR CLOUDY    59  48  66 W12G18    30.20S
ARBOR VITAE    PTSUNNY   60  49  67 W9        30.20F
EAGLE RIVER    CLOUDY    61  46  58 W10G17    30.19S
LAND O LAKES   PTSUNNY   61  47  60 W10       30.19S
RHINELANDER    CLOUDY    62  48  60 W13       30.21F
PHILLIPS       PTSUNNY   59  49  69 W7G16     30.22S
ANTIGO         CLOUDY    61  47  61 W16       30.22S
TOMAHAWK       CLOUDY    59  46  61 W9        30.23S
MERRILL        CLOUDY    62  48  61 W13       30.22S
$$

WIZ013-073-221800-
NORTHEAST WISCONSIN

CITY           SKY/WX    TMP DP  RH WIND       PRES   REMARKS
IRON MOUNTAIN  MOSUNNY   64  46  52 NW10G21   30.15F
MARINETTE      CLOUDY    59  48  67 W7        30.18F
OCONTO         CLOUDY    62  47  58 W9        30.20S
$$

WIZ017-030-035>037-045-221800-
CENTRAL WISCONSIN

CITY           SKY/WX    TMP DP  RH WIND       PRES   REMARKS
MEDFORD        CLOUDY    59  48  68 W9        30.24F
WAUSAU         CLOUDY    62  46  55 W14       30.22F
MOSINEE        CLOUDY   N/A  48   0 W10       30.25F
MARSHFIELD     CLOUDY    63  49  60 W9        30.24F
WISC RAPIDS    SUNNY     65  46  50 W10       30.26F
STEVENS POINT  MOSUNNY   60  44  54 W9        30.25F
WAUPACA        SUNNY     67  46  46 W7        30.24F
SHAWANO        MOSUNNY   65  47  51 W8        30.22S
CLINTONVILLE   MOSUNNY   64  45  48 W6        30.23S
$$

WIZ038-039-048-051-221800-
FOX VALLEY

CITY           SKY/WX    TMP DP  RH WIND       PRES   REMARKS
NWS GREEN BAY  SUNNY     64  47  53 VRB7      30.23S
APPLETON       MOSUNNY   61  46  59 W9        30.24F
OSHKOSH        SUNNY     62  47  57 W9        30.25S
FOND DU LAC    SUNNY     63  44  50 W12       30.25F
$$

WIZ022-050-052-221800-
EAST CENTRAL WISCONSIN

CITY           SKY/WX    TMP DP  RH WIND       PRES   REMARKS
STURGEON BAY   CLOUDY    57  46  67 W9        30.22S
MANITOWOC      SUNNY     62  47  57 W8        30.24S
SHEBOYGAN      SUNNY     63  43  48 W10G18    30.25S
$$

LMZ563-521-522-541>543-221800-
LAKESHORE

STATION/POSITION TIME  TEMP    WIND        PRES    VSBY  WAVE
                       AIR SEA DIR/SP/G                  HT/PER
                 (UTC) (F)     (DEG/KT/KT) (MB)    (MI)  (FT/S)
SHEBOYGAN LKSHOR 1700   60 53  280/ 13/ 15 1024.6F
KEWAUNEE LKSHORE 1700   61     260/  5/  8 1022.3S
NORTHPORT PIER   1700   59     230/  2/  9 1022.0F
N MID LAKE BUOY  1700   53 57  230/ 12/ 14 1021.9F         2/ 4
S GREEN BAY BUOY 1700   56     VRB 12/ 14  1023.8F
CHAMBERS ISLAND  1700   54     210/  8/ 13 1022.4S
MENOMINEE LKSHOR 1700   58     250/  5/  8 1022.9S
$$


USA.gov is the U.S. government's official web portal to all federal, state and local government web resources and services.